Simultaneous Nadir Overpasses (SNOs) Predictions

Prediction of SNOs near equator between AQUA and NPP Satellite Orbit:

Table of predicted SNOs near equator for the next 14.0 days since TLE Epoch: 5/29/2021
Index Date (AQUA) Time (AQUA) AQUA Lat,Lon Date (NPP) Time (NPP) NPP Lat,Lon Distance(km) Time Diff (sec)
1 05/30/2021 00:09:10 -6.23, 20.67 05/29/2021 23:59:10 -6.25, 20.43 25.81 600
2 05/30/2021 00:57:27 1.76,-170.76 05/30/2021 00:48:41 1.65,-171.24 54.55 526
3 05/30/2021 01:45:33 2.84, -2.13 05/30/2021 01:38:03 2.97, -2.87 84.34 450
4 06/01/2021 16:25:15 -4.74, 136.86 06/01/2021 16:15:40 -4.66, 136.56 34.87 575
5 06/01/2021 17:13:29 0.10, -54.53 06/01/2021 17:05:10 -0.00, -55.10 64.77 499
6 06/01/2021 18:01:37 4.38, 114.08 06/01/2021 17:54:33 4.57, 113.25 94.36 424
7 06/04/2021 08:41:17 -3.09,-106.91 06/04/2021 08:32:09 -3.01,-107.31 45.07 548
8 06/04/2021 09:29:33 -1.43, 61.67 06/04/2021 09:21:40 -1.59, 61.02 75.09 473
9 06/07/2021 00:09:13 6.06,-159.32 06/06/2021 23:59:16 5.99,-159.54 25.59 597
10 06/07/2021 00:57:19 -1.44, 9.32 06/07/2021 00:48:38 -1.36, 8.83 55.46 521
11 06/07/2021 01:45:35 -3.07, 177.90 06/07/2021 01:38:09 -3.24, 177.15 85.21 446
12 06/09/2021 16:25:14 4.42, -43.09 06/09/2021 16:15:44 4.35, -43.41 35.82 570
13 06/09/2021 17:13:21 0.14, 125.54 06/09/2021 17:05:06 0.28, 124.96 65.70 495
14 06/09/2021 18:01:36 -4.71, -65.87 06/09/2021 17:54:37 -4.88, -66.71 95.32 419
